Weather History for Cardiff-Wales, United Kingdom

Change the Weather History Date:

Saturday, December 28, 2013

  Actual Average Record
Temperature  
Mean Temperature 38 °F -  
Max Temperature 44 °F 44 °F 53 °F (2012)
Min Temperature 33 °F 36 °F 24 °F (2005)
Degree Days  
Heating Degree Days 26    
Moisture  
Dew Point 37 °F    
Average Humidity 88    
Maximum Humidity 100    
Minimum Humidity 81    
Precipitation  
Precipitation 0.00 in 0.12 in - ()
Sea Level Pressure  
Sea Level Pressure 29.45 in    
Wind  
Wind Speed 9 mph ()    
Max Wind Speed 18 mph    
Max Gust Speed 23 mph    
Visibility 6.1 miles    
Events Rain    
Averages and records for this station are not official NWS values.
T = Trace of Precipitation, MM = Missing Value Source: Averaged Metar Reports

Daily Weather History Graph

Daily Weather History Graph

Search for Another Location

Airport:

Trip Planner

Search our weather history database for the weather conditions in past years. The results will help you decide how hot, cold, wet, or windy it might be!

Date:

Astronomy

Dec. 28, 2013 Rise Set
Actual Time 8:18 AM GMT 4:11 PM GMT
Civil Twilight 7:38 AM GMT 4:51 PM GMT
Nautical Twilight 6:55 AM GMT 5:34 PM GMT
Astronomical Twilight 6:14 AM GMT 6:15 PM GMT
Moon 3:21 AM GMT 1:08 PM GMT
Length of Visible Light 9h 13m
Length of Day
7h 53m
Waning Crescent, 21% of the Moon is Illuminated
Dec 28
Waning Crescent
Jan 1
New
Jan 8
First Quarter
Jan 16
Full
Jan 24
Last Quarter

Hourly Weather History & Observations

Time (GMT) Temp. Windchill Dew Point Humidity Pressure Visibility Wind Dir Wind Speed Gust Speed Precip Events Conditions
12:20 AM 42.8 °F 36.6 °F 39.2 °F 87% 29.24 in 6.2 mi SW 11.5 mph 23.0 mph N/A   Unknown
12:50 AM 42.8 °F 35.1 °F 37.4 °F 81% 29.24 in 6.2 mi WSW 16.1 mph - N/A   Partly Cloudy
1:20 AM 42.8 °F 35.4 °F 37.4 °F 81% 29.24 in 6.2 mi WSW 15.0 mph - N/A   Partly Cloudy
1:50 AM 42.8 °F 35.8 °F 37.4 °F 81% 29.24 in 6.2 mi WSW 13.8 mph - N/A   Partly Cloudy
2:20 AM 42.8 °F 35.4 °F 37.4 °F 81% 29.27 in 6.2 mi West 15.0 mph - N/A Rain Rain
2:50 AM 42.8 °F 37.0 °F 39.2 °F 87% 29.27 in 6.2 mi West 10.4 mph - N/A   Partly Cloudy
3:20 AM 42.8 °F 35.4 °F 39.2 °F 87% 29.27 in 6.2 mi WSW 15.0 mph - N/A Rain Rain
3:50 AM 42.8 °F 34.5 °F 39.2 °F 87% 29.30 in 4.3 mi WSW 18.4 mph - N/A Rain Light Rain Showers
4:20 AM 41.0 °F 33.1 °F 37.4 °F 87% 29.30 in 2.5 mi West 15.0 mph - N/A Rain Light Rain Showers
4:50 AM 41.0 °F 34.3 °F 37.4 °F 87% 29.27 in 6.2 mi WSW 11.5 mph - N/A   Partly Cloudy
5:20 AM 41.0 °F 34.3 °F 37.4 °F 87% 29.27 in 6.2 mi WSW 11.5 mph - N/A   Partly Cloudy
5:50 AM 41.0 °F 35.2 °F 37.4 °F 87% 29.30 in 6.2 mi SW 9.2 mph - N/A   Scattered Clouds
6:20 AM 41.0 °F 34.7 °F 37.4 °F 87% 29.30 in 6.2 mi SSW 10.4 mph - N/A   Scattered Clouds
6:50 AM 41.0 °F 35.2 °F 39.2 °F 93% 29.33 in 6.2 mi WSW 9.2 mph - N/A   Scattered Clouds
7:20 AM 39.2 °F 34.2 °F 37.4 °F 93% 29.36 in 6.2 mi NW 6.9 mph - N/A Rain Rain
7:50 AM 41.0 °F 37.1 °F 37.4 °F 87% 29.36 in 6.2 mi NNW 5.8 mph - N/A   Scattered Clouds
8:20 AM 41.0 °F 39.0 °F 37.4 °F 87% 29.36 in 6.2 mi Variable 3.5 mph - N/A   Partly Cloudy
8:50 AM 42.8 °F 38.6 °F 39.2 °F 87% 29.39 in 6.2 mi WSW 6.9 mph - N/A   Partly Cloudy
9:20 AM 42.8 °F 37.0 °F 39.2 °F 87% 29.39 in 6.2 mi SW 10.4 mph - N/A   Scattered Clouds
9:50 AM 42.8 °F 36.6 °F 39.2 °F 87% 29.42 in 6.2 mi SSW 11.5 mph - N/A   Partly Cloudy
10:20 AM 42.8 °F 36.2 °F 39.2 °F 87% 29.42 in 6.2 mi SW 12.7 mph - N/A Rain Light Rain Showers
10:50 AM 41.0 °F 35.2 °F 37.4 °F 87% 29.42 in 6.2 mi SW 9.2 mph - N/A   Partly Cloudy
11:20 AM 42.8 °F 38.0 °F 39.2 °F 87% 29.44 in 6.2 mi WSW 8.1 mph - N/A   Partly Cloudy
11:50 AM 42.8 °F 38.6 °F 39.2 °F 87% 29.44 in 6.2 mi West 6.9 mph - N/A   Scattered Clouds
12:20 PM 42.8 °F 37.5 °F 39.2 °F 87% 29.44 in 6.2 mi NNW 9.2 mph - N/A   Scattered Clouds
12:50 PM 42.8 °F 38.0 °F 39.2 °F 87% 29.44 in 6.2 mi NW 8.1 mph - N/A   Partly Cloudy
1:20 PM 42.8 °F - 39.2 °F 87% 29.44 in 6.2 mi NW 2.3 mph - N/A   Scattered Clouds
1:50 PM 44.6 °F - 39.2 °F 81% 29.44 in 6.2 mi Variable 2.3 mph - N/A   Scattered Clouds
2:20 PM 42.8 °F 38.0 °F 39.2 °F 87% 29.44 in 6.2 mi West 8.1 mph - N/A   Partly Cloudy
2:50 PM 42.8 °F 40.1 °F 37.4 °F 81% 29.47 in 6.2 mi West 4.6 mph - N/A   Partly Cloudy
3:20 PM 41.0 °F 37.1 °F 37.4 °F 87% 29.47 in 6.2 mi West 5.8 mph - N/A   Partly Cloudy
3:50 PM 39.2 °F 35.9 °F 37.4 °F 93% 29.50 in 6.2 mi North 4.6 mph - N/A   Partly Cloudy
4:20 PM 41.0 °F 39.0 °F 37.4 °F 87% 29.50 in 6.2 mi NW 3.5 mph - N/A   Partly Cloudy
4:50 PM 39.2 °F 35.9 °F 37.4 °F 93% 29.53 in 6.2 mi NW 4.6 mph - N/A   Partly Cloudy
5:20 PM 39.2 °F 37.0 °F 37.4 °F 93% 29.53 in 6.2 mi Variable 3.5 mph - N/A   Partly Cloudy
5:50 PM 39.2 °F - 35.6 °F 87% 29.56 in 6.2 mi North 2.3 mph - N/A   Partly Cloudy
6:20 PM 37.4 °F 32.1 °F 35.6 °F 93% 29.56 in 6.2 mi NW 6.9 mph - N/A   Partly Cloudy
6:50 PM 39.2 °F 34.2 °F 37.4 °F 93% 29.59 in 6.2 mi NW 6.9 mph - N/A   Partly Cloudy
7:20 PM 39.2 °F 34.2 °F 35.6 °F 87% 29.59 in 6.2 mi NW 6.9 mph - N/A   Partly Cloudy
7:50 PM 35.6 °F 29.2 °F 33.8 °F 93% 29.62 in 6.2 mi NW 8.1 mph - N/A   Partly Cloudy
8:20 PM 35.6 °F 29.2 °F 35.6 °F 100% 29.62 in 6.2 mi NW 8.1 mph - N/A   Partly Cloudy
8:50 PM 37.4 °F 32.1 °F 35.6 °F 93% 29.65 in 6.2 mi NW 6.9 mph - N/A   Partly Cloudy
9:20 PM 35.6 °F 29.2 °F 33.8 °F 93% 29.65 in 6.2 mi WNW 8.1 mph - N/A   Partly Cloudy
9:50 PM 33.8 °F 26.4 °F 32.0 °F 93% 29.68 in - NW 9.2 mph - N/A   Clear
10:20 PM 35.6 °F 29.9 °F 33.8 °F 93% 29.68 in - NW 6.9 mph - N/A   Clear
10:50 PM 35.6 °F 28.6 °F 33.8 °F 93% 29.71 in - WNW 9.2 mph - N/A   Clear
11:20 PM 35.6 °F 28.6 °F 33.8 °F 93% 29.74 in - WNW 9.2 mph - N/A   Clear
11:50 PM 35.6 °F 29.9 °F 33.8 °F 93% 29.74 in 6.2 mi WNW 6.9 mph - N/A   Unknown